1496901600.19,64715,17.69,73974.0,7.39,-37.33,-39.59,0,*73
1496901601.42,64716,17.69,73974.8,7.35,-38.85,-41.03,0,*7E
1496901602.67,64717,17.69,73972.0,7.31,-37.99,-40.15,0,*7F
1496901603.92,64718,17.69,73974.3,7.31,-37.51,-39.85,0,*73
1496901605.2,64719,17.69,73972.0,7.27,-37.69,-40.09,0,*74
1496901606.42,64720,17.69,73972.5,7.25,-37.03,-39.29,0,*7C
1496901607.66,64721,17.69,73972.3,7.19,-37.15,-39.53,0,*78
1496901608.91,64722,17.69,73970.0,7.17,-38.49,-40.79,0,*75
1496901610.17,64723,17.69,73970.5,7.15,-38.55,-40.85,0,*78
1496901611.45,64724,17.69,73970.0,7.11,-37.63,-39.79,0,*7C
1496901612.7,64725,17.69,73972.5,7.11,-37.75,-40.09,0,*73
1496901613.95,64726,17.69,73970.0,7.07,-37.27,-39.59,0,*7B
1496901615.17,64727,17.69,73970.0,7.05,-37.39,-39.85,0,*76
1496901616.44,64728,17.69,73970.3,7.03,-36.91,-39.03,0,*72
1496901617.69,64729,17.69,73968.3,7.03,-36.79,-39.09,0,*7F
1496901618.96,64730,17.69,73968.8,6.99,-37.39,-39.53,0,*7F
1496901620.21,64731,17.69,73970.3,6.99,-37.15,-39.15,0,*72
1496901621.46,64732,17.69,73970.3,6.97,-37.21,-39.15,0,*78
1496901622.71,64733,17.69,73964.5,6.93,-36.61,-38.67,0,*7C
1496901623.98,64734,17.69,73970.3,6.95,-35.95,-37.69,0,*74
1496901625.23,64735,17.69,73968.8,6.95,-35.23,-36.97,0,*78
1496901626.51,64736,17.69,73972.0,6.95,-34.83,-36.49,0,*73
1496901627.78,64737,17.69,73970.8,6.95,-35.95,-37.69,0,*77
1496901629.03,64738,17.69,73968.0,6.95,-36.49,-38.43,0,*7D
1496901630.28,64739,17.69,73970.0,6.95,-36.25,-38.17,0,*77
1496901631.49,64740,17.69,73970.8,6.95,-35.17,-36.85,0,*7E
1496901632.7,64741,17.69,73970.0,6.93,-34.13,-35.77,0,*72
1496901633.96,64742,17.69,73970.0,6.95,-33.31,-35.01,0,*71
1496901635.18,64743,17.69,73970.0,6.97,-32.97,-34.47,0,*7C
1496901636.4,64744,17.69,73970.3,6.99,-32.39,-34.07,0,*75
1496901637.65,64745,17.69,73968.3,7.03,-32.57,-34.19,0,*71
1496901638.9,64746,17.69,73968.3,7.07,-32.97,-34.47,0,*71
1496901640.15,64747,17.69,73970.5,7.09,-32.07,-33.73,0,*77
1496901641.34,64748,17.69,73970.3,7.09,-32.51,-34.25,0,*7F
1496901642.56,64749,17.69,73970.3,7.13,-32.29,-33.83,0,*71
1496901643.75,64750,17.69,73968.3,7.13,-32.35,-33.83,0,*74
1496901644.97,64751,17.69,73974.3,7.17,-32.45,-33.95,0,*71
1496901646.19,64752,17.69,73970.0,7.17,-32.63,-34.25,0,*7A
1496901647.43,64753,17.69,73968.0,7.21,-32.63,-34.35,0,*7F
1496901648.65,64754,17.69,73968.8,7.25,-32.57,-34.31,0,*7F
1496901649.87,64755,17.69,73972.5,7.25,-32.57,-34.19,0,*74
1496901651.1,64756,17.69,73968.5,7.27,-33.21,-34.89,0,*7C
1496901652.37,64757,17.69,73970.3,7.27,-33.43,-35.41,0,*7C
1496901653.58,64758,17.69,73974.0,7.29,-32.69,-34.71,0,*76
1496901654.85,64759,17.69,73972.0,7.31,-32.85,-34.83,0,*71
1496901656.1,64760,17.69,73972.8,7.31,-33.73,-36.19,0,*72
1496901657.34,64761,17.69,73972.0,7.31,-35.41,-38.05,0,*77
1496901658.57,64762,17.69,73968.3,7.31,-34.47,-37.33,0,*79
1496901659.81,64763,17.69,73972.8,7.29,-34.13,-37.51,0,*74
1496901661.03,64764,17.69,73968.5,7.29,-33.15,-36.49,0,*7A
1496901662.23,64765,17.69,73968.8,7.29,-33.55,-37.45,0,*72
1496901663.48,64766,17.69,73970.8,7.27,-34.01,-38.17,0,*71
1496901664.69,64767,17.69,73970.0,7.25,-34.59,-39.09,0,*71
1496901665.92,64768,17.69,73972.0,7.21,-35.01,-39.59,0,*73
1496901667.15,64769,17.69,73974.0,7.19,-34.89,-39.65,0,*77
1496901668.4,64770,17.69,73968.5,7.19,-33.31,-38.43,0,*7E
1496901669.63,64771,17.69,73968.0,7.15,-32.51,-37.57,0,*7E
1496901670.91,64772,17.69,73968.0,7.15,-31.95,-36.91,0,*7D
1496901672.17,64773,17.69,73970.8,7.15,-31.33,-36.25,0,*7F
1496901673.38,64774,17.69,73970.8,7.17,-30.39,-35.17,0,*73
1496901674.58,64775,17.69,73972.0,7.17,-30.33,-34.89,0,*7E
1496901675.8,64776,17.69,73970.5,7.21,-30.61,-35.17,0,*79
1496901677.03,64777,17.69,73972.8,7.21,-30.11,-34.65,0,*7B
1496901678.26,64778,17.69,73968.8,7.21,-32.19,-36.85,0,*72
1496901679.48,64779,17.69,73970.5,7.21,-32.23,-36.79,0,*79
1496901680.73,64780,17.69,73970.5,7.19,-31.95,-36.31,0,*76
1496901681.98,64781,17.69,73972.0,7.19,-31.39,-35.71,0,*76
1496901683.21,64782,17.69,73972.8,7.21,-31.39,-35.47,0,*7B
1496901684.43,64783,17.69,73968.8,7.25,-31.17,-35.23,0,*70
1496901685.7,64784,17.69,73972.5,7.27,-30.73,-34.35,0,*70
1496901686.97,64785,17.69,73970.3,7.27,-30.61,-34.31,0,*76
1496901688.22,64786,17.69,73970.8,7.31,-31.39,-35.01,0,*7C
1496901689.46,64787,17.69,73974.0,7.33,-31.39,-34.83,0,*74
1496901690.69,64788,17.69,73974.0,7.33,-31.33,-34.65,0,*79
1496901691.94,64789,17.69,73970.8,7.35,-30.61,-33.95,0,*70
1496901693.16,64790,17.69,73972.0,7.37,-30.55,-33.67,0,*70
1496901694.41,64791,17.69,73968.5,7.37,-30.55,-33.43,0,*77
1496901695.64,64792,17.69,73974.0,7.41,-29.95,-32.75,0,*75
1496901696.86,64793,17.69,73972.5,7.43,-29.83,-32.57,0,*71
1496901698.14,64794,17.69,73968.8,7.47,-30.61,-33.31,0,*77
1496901699.37,64795,17.69,73974.0,7.49,-30.27,-33.03,0,*7B
1496901700.59,64796,17.69,73966.8,7.51,-30.33,-32.85,0,*7B
1496901701.85,64797,17.69,73974.0,7.53,-30.51,-33.03,0,*73
1496901703.09,64798,17.69,73970.3,7.57,-31.17,-33.61,0,*7F
1496901704.34,64799,17.69,73972.3,7.57,-30.61,-32.91,0,*70
1496901705.57,64800,17.69,73970.3,7.59,-31.23,-33.55,0,*7F
1496901706.81,64801,17.69,73970.8,7.61,-31.79,-34.19,0,*75
1496901708.06,64802,17.69,73968.8,7.61,-32.01,-34.35,0,*74
1496901709.26,64803,17.69,73970.8,7.63,-31.79,-34.07,0,*7A
1496901710.52,64804,17.69,73970.8,7.65,-31.23,-33.37,0,*70
1496901711.77,64805,17.69,73970.5,7.65,-30.89,-33.03,0,*77
1496901712.99,64806,17.69,73968.0,7.71,-31.85,-33.95,0,*73
1496901714.23,64807,17.69,73970.8,7.71,-32.19,-34.31,0,*7D
1496901715.48,64808,17.69,73968.5,7.71,-31.61,-33.61,0,*7C
1496901716.7,64809,17.69,73968.3,7.75,-31.57,-33.55,0,*7B
1496901717.9,64810,17.69,73970.5,7.75,-31.17,-33.03,0,*74
1496901719.18,64811,17.69,73970.0,7.77,-30.89,-32.85,0,*7E
1496901720.41,64812,17.69,73968.5,7.81,-30.77,-32.69,0,*77
1496901721.69,64813,17.69,73970.8,7.83,-30.89,-32.75,0,*78
1496901722.95,64814,17.69,73970.0,7.83,-31.45,-33.27,0,*78
1496901724.21,64815,17.69,73970.3,7.87,-31.05,-32.85,0,*70
1496901725.49,64816,17.69,73970.5,7.87,-30.89,-32.63,0,*7E
1496901726.75,64817,17.69,73968.8,7.93,-30.95,-32.75,0,*70
1496901727.98,64818,17.69,73968.0,7.93,-31.67,-33.43,0,*77
1496901729.24,64819,17.69,73968.3,7.97,-31.61,-33.43,0,*74
1496901730.46,64820,17.69,73968.8,7.97,-32.23,-33.77,0,*7C
1496901731.69,64821,17.69,73970.8,7.97,-31.91,-33.55,0,*77
1496901732.92,64822,17.69,73968.5,7.99,-31.45,-33.03,0,*70
1496901734.15,64823,17.69,73970.5,8.01,-31.67,-33.27,0,*79
1496901735.37,64824,17.69,73968.8,8.01,-31.51,-33.15,0,*7A
1496901736.59,64825,17.69,73966.0,8.05,-32.19,-33.83,0,*7F
1496901737.82,64826,17.69,73972.3,8.05,-32.51,-34.01,0,*7D
1496901739.0,64827,17.69,73970.8,8.05,-32.35,-33.95,0,*74
1496901740.22,64828,17.69,73968.5,8.05,-32.35,-33.77,0,*77
1496901741.47,64829,17.69,73970.5,8.09,-32.75,-34.35,0,*7F
1496901742.69,64830,17.69,73968.8,8.09,-32.97,-34.59,0,*71
1496901743.93,64831,17.69,73966.8,8.09,-32.45,-34.19,0,*7B
1496901745.18,64832,17.69,73970.0,8.09,-32.63,-34.35,0,*72
1496901746.42,64833,17.69,73970.0,8.09,-32.63,-34.35,0,*73
1496901747.65,64834,17.69,73970.0,8.09,-33.09,-34.47,0,*7C
1496901748.87,64835,17.69,73966.5,8.09,-32.63,-34.25,0,*74
1496901750.13,64836,17.69,73968.0,8.11,-32.45,-34.19,0,*75
1496901751.33,64837,17.69,73970.8,8.15,-33.03,-34.77,0,*7B
1496901752.55,64838,17.69,73972.5,8.15,-32.75,-34.41,0,*71
1496901753.8,64839,17.69,73966.5,8.15,-31.95,-33.49,0,*72
1496901755.02,64840,17.69,73968.5,8.15,-31.79,-33.31,0,*71
1496901756.3,64841,17.69,73968.8,8.17,-31.61,-33.43,0,*7E
1496901757.55,64842,17.69,73970.8,8.19,-32.97,-34.83,0,*72
1496901758.77,64843,17.69,73964.8,8.21,-33.21,-35.17,0,*78
1496901760.01,64844,17.69,73968.0,8.19,-33.77,-36.01,0,*73
1496901761.26,64845,17.69,73970.8,8.19,-33.77,-36.13,0,*71
1496901762.49,64846,17.69,73966.3,8.17,-32.69,-35.01,0,*72
1496901763.74,64847,17.69,73968.0,8.19,-31.95,-34.31,0,*7F
1496901764.94,64848,17.69,73970.8,8.19,-31.79,-34.25,0,*77
1496901766.14,64849,17.69,73970.5,8.19,-32.35,-35.01,0,*7A
1496901767.39,64850,17.69,73964.5,8.19,-32.63,-35.23,0,*71
1496901768.64,64851,17.69,73968.3,8.19,-31.73,-34.31,0,*70
1496901769.84,64852,17.69,73966.8,8.19,-31.45,-34.13,0,*76
1496901771.03,64853,17.69,73964.8,8.19,-31.05,-33.95,0,*7A
1496901772.26,64854,17.69,73970.3,8.21,-30.67,-33.37,0,*7B
1496901773.5,64855,17.69,73972.5,8.23,-30.51,-33.31,0,*7B
1496901774.71,64856,17.69,73970.3,8.23,-31.51,-34.25,0,*7B
1496901775.96,64857,17.69,73968.8,8.23,-31.95,-34.83,0,*7E
1496901777.2,64858,17.69,73966.3,8.25,-32.23,-35.07,0,*74
1496901778.45,64859,17.69,73970.3,8.25,-32.91,-35.65,0,*78
1496901779.72,64860,17.69,73970.3,8.25,-32.85,-35.65,0,*77
1496901780.94,64861,17.69,73968.0,8.27,-33.43,-36.31,0,*7D
1496901782.16,64862,17.69,73964.3,8.25,-34.25,-37.03,0,*7B
1496901783.39,64863,17.69,73968.5,8.21,-35.01,-37.75,0,*78
1496901784.6,64864,17.69,73970.8,8.21,-36.43,-39.35,0,*70
1496901785.85,64865,17.69,73964.3,8.17,-37.45,-40.21,0,*78
1496901787.08,64866,17.69,73968.0,8.11,-37.03,-39.91,0,*7A
1496901788.3,64867,17.69,73968.5,8.09,-36.43,-39.15,0,*7B
1496901789.57,64868,17.69,73966.3,8.07,-35.65,-38.23,0,*79
1496901790.82,64869,17.69,73966.8,8.07,-34.53,-37.27,0,*77
1496901792.04,64870,17.69,73964.3,8.05,-35.59,-38.29,0,*77
1496901793.27,64871,17.69,73964.3,8.03,-36.97,-39.47,0,*78
1496901794.54,64872,17.69,73966.5,7.99,-35.83,-38.23,0,*72
1496901795.77,64873,17.69,73968.0,7.99,-34.47,-36.85,0,*78
1496901797.03,64874,17.69,73966.8,7.99,-34.65,-36.97,0,*7C
1496901798.26,64875,17.69,73966.3,7.99,-35.01,-37.33,0,*71
1496901799.46,64876,17.69,73968.0,7.97,-36.31,-38.61,0,*74
1496901800.71,64877,17.69,73964.0,7.97,-35.53,-37.81,0,*73
1496901801.96,64878,17.69,73966.8,7.95,-36.01,-38.23,0,*7D
1496901803.17,64879,17.69,73966.5,7.93,-36.19,-38.35,0,*74
1496901804.39,64880,17.69,73968.3,7.89,-37.09,-39.35,0,*78
1496901805.62,64881,17.69,73966.3,7.87,-36.85,-38.97,0,*7B
1496901806.85,64882,17.69,73970.3,7.85,-36.55,-38.67,0,*78
1496901808.08,64883,17.69,73970.0,7.83,-36.43,-38.43,0,*7E
1496901809.34,64884,17.69,73968.0,7.81,-35.95,-38.11,0,*74
1496901810.57,64885,17.69,73968.8,7.81,-36.55,-38.67,0,*7B
1496901811.8,64886,17.69,73966.8,7.81,-36.19,-38.23,0,*70
1496901813.07,64887,17.69,73970.8,7.77,-35.53,-37.51,0,*7F
1496901814.32,64888,17.69,73970.0,7.77,-35.77,-37.69,0,*7D
1496901815.57,64889,17.69,73968.8,7.77,-35.35,-37.27,0,*70
1496901816.79,64890,17.69,73968.0,7.77,-36.07,-38.05,0,*75
1496901817.98,64891,17.69,73966.8,7.75,-35.17,-37.33,0,*7E
1496901819.21,64892,17.69,73968.8,7.75,-34.83,-37.03,0,*72
1496901820.43,64893,17.69,73968.5,7.75,-35.01,-37.09,0,*72
1496901821.71,64894,17.69,73968.5,7.77,-34.95,-36.91,0,*7B
1496901822.95,64895,17.69,73972.5,7.73,-35.65,-37.57,0,*7B
1496901824.23,64896,17.69,73966.5,7.73,-35.95,-37.93,0,*7F
1496901825.48,64897,17.69,73966.3,7.71,-36.37,-38.49,0,*7F
1496901826.68,64898,17.69,73966.3,7.67,-36.43,-38.55,0,*79
1496901827.9,64899,17.69,73970.0,7.67,-35.71,-37.93,0,*7F
1496901829.09,64900,17.69,73968.8,7.67,-36.01,-38.17,0,*79
1496901830.32,64901,17.69,73968.0,7.63,-36.73,-39.15,0,*7A
1496901831.54,64902,17.69,73968.8,7.63,-35.13,-37.69,0,*79
1496901832.79,64903,17.69,73968.8,7.63,-34.83,-37.39,0,*75
1496901834.06,64904,17.69,73970.5,7.61,-35.23,-37.69,0,*7E
1496901835.32,64905,17.69,73968.0,7.61,-34.35,-36.97,0,*79
1496901836.54,64906,17.69,73968.8,7.61,-32.91,-35.47,0,*7C
1496901837.79,64907,17.69,73972.5,7.63,-32.85,-35.23,0,*78
1496901839.01,64908,17.69,73970.5,7.63,-31.91,-34.59,0,*7D
1496901840.24,64909,17.69,73968.5,7.65,-31.79,-34.47,0,*73
1496901841.46,64910,17.69,73968.8,7.67,-32.19,-34.89,0,*7E
1496901842.69,64911,17.69,73970.0,7.71,-32.69,-35.35,0,*79
1496901843.93,64912,17.69,73970.8,7.71,-32.29,-35.07,0,*7F
1496901845.2,64913,17.69,73970.3,7.73,-31.85,-34.83,0,*74
1496901846.44,64914,17.69,73970.0,7.73,-32.51,-35.23,0,*72
1496901847.72,64915,17.69,73966.8,7.73,-34.65,-37.51,0,*75
1496901848.97,64916,17.69,73970.8,7.73,-33.95,-36.91,0,*73
1496901850.24,64917,17.69,73968.5,7.73,-34.31,-37.09,0,*7B
1496901851.49,64918,17.69,73966.8,7.73,-33.83,-36.79,0,*7C
1496901852.71,64919,17.69,73970.8,7.75,-34.25,-37.21,0,*7C
1496901853.96,64920,17.69,73968.3,7.73,-35.07,-37.87,0,*7D
1496901855.22,64921,17.69,73964.3,7.71,-34.53,-37.39,0,*7B
1496901856.49,64922,17.69,73970.3,7.73,-35.83,-38.67,0,*72
1496901857.73,64923,17.69,73968.3,7.67,-36.79,-39.53,0,*76
1496901858.92,64924,17.69,73964.3,7.63,-36.67,-39.35,0,*7A
1496901860.12,64925,17.69,73968.0,7.63,-36.31,-38.85,0,*72
1496901861.34,64926,17.69,73968.3,7.61,-37.45,-40.03,0,*70
1496901862.59,64927,17.69,73970.8,7.57,-37.33,-40.09,0,*7F
1496901863.84,64928,17.69,73968.0,7.57,-37.75,-40.29,0,*70
1496901865.1,64929,17.69,73970.0,7.53,-37.69,-40.15,0,*77
1496901866.31,64930,17.69,73968.5,7.51,-36.79,-39.47,0,*74
1496901867.54,64931,17.69,73966.8,7.51,-37.93,-40.47,0,*7E
1496901868.81,64932,17.69,73966.8,7.47,-37.51,-40.09,0,*7E
1496901870.09,64933,17.69,73968.8,7.43,-36.91,-39.71,0,*77
1496901871.28,64934,17.69,73968.8,7.41,-37.27,-39.91,0,*70
1496901872.53,64935,17.69,73970.8,7.39,-37.51,-40.03,0,*7A
1496901873.76,64936,17.69,73968.5,7.37,-37.93,-40.65,0,*79
1496901874.96,64937,17.69,73968.0,7.33,-38.55,-41.49,0,*76
1496901876.23,64938,17.69,73970.3,7.31,-39.03,-41.93,0,*7E
1496901877.46,64939,17.69,73966.3,7.27,-38.85,-41.87,0,*72
1496901878.68,64940,17.69,73966.3,7.25,-38.73,-42.05,0,*7E
1496901879.91,64941,17.69,73964.3,7.19,-38.85,-42.13,0,*7E
1496901881.16,64942,17.69,73968.0,7.15,-38.73,-42.05,0,*7F
1496901882.43,64943,17.69,73968.8,7.11,-39.15,-42.57,0,*7C
1496901883.65,64944,17.69,73970.8,7.11,-38.35,-41.73,0,*7D
1496901884.91,64945,17.69,73968.8,7.07,-38.79,-42.25,0,*73
1496901886.16,64946,17.69,73970.8,7.03,-38.55,-42.05,0,*78
1496901887.38,64947,17.69,73970.3,6.97,-39.23,-42.51,0,*74
1496901888.6,64948,17.69,73970.5,6.95,-38.55,-41.73,0,*7A
1496901889.8,64949,17.69,73964.3,6.93,-38.43,-41.87,0,*71
1496901891.05,64950,17.69,73964.5,6.89,-38.67,-41.93,0,*71
1496901892.27,64951,17.69,73966.3,6.85,-38.61,-41.93,0,*7A
1496901893.47,64952,17.69,73966.8,6.85,-38.55,-41.61,0,*73
1496901894.69,64953,17.69,73966.8,6.81,-38.43,-41.61,0,*71
1496901895.88,64954,17.69,73966.0,6.79,-38.97,-42.25,0,*7B
1496901897.1,64955,17.69,73966.5,6.79,-38.67,-41.87,0,*7E
1496901898.34,64956,17.69,73964.5,6.73,-38.73,-41.93,0,*77
1496901899.57,64957,17.69,73966.5,6.71,-38.11,-41.41,0,*7F
1496901900.8,64958,17.69,73962.5,6.67,-38.49,-41.61,0,*78
1496901902.05,64959,17.69,73964.5,6.65,-38.43,-41.55,0,*76
1496901903.3,64960,17.69,73968.0,6.63,-38.91,-41.93,0,*7F
1496901904.58,64961,17.69,73966.3,6.61,-39.15,-42.05,0,*7D
1496901905.81,64962,17.69,73970.0,6.59,-38.11,-41.03,0,*75
1496901907.09,64963,17.69,73968.5,6.53,-38.11,-40.97,0,*72
1496901908.34,64964,17.69,73966.3,6.53,-38.23,-41.29,0,*70
1496901909.57,64965,17.69,73970.5,6.51,-37.75,-40.47,0,*76
1496901910.76,64966,17.69,73970.5,6.49,-37.45,-40.35,0,*7A
1496901911.96,64967,17.69,73966.3,6.49,-37.33,-39.85,0,*7F
1496901913.18,64968,17.69,73970.5,6.49,-37.45,-39.97,0,*72
1496901914.41,64969,17.69,73968.5,6.47,-37.57,-39.91,0,*78
1496901915.62,64970,17.69,73970.8,6.47,-37.15,-39.47,0,*7D
1496901916.9,64971,17.69,73970.0,6.47,-37.21,-39.41,0,*7D
1496901918.13,64972,17.69,73966.3,6.47,-36.19,-38.35,0,*76
1496901919.4,64973,17.69,73966.8,6.47,-35.41,-37.39,0,*7A
1496901920.65,64974,17.69,73970.0,6.47,-35.47,-37.39,0,*7B
1496901921.9,64975,17.69,73968.5,6.47,-36.19,-38.29,0,*7C
1496901923.13,64976,17.69,73970.5,6.49,-35.01,-37.09,0,*76
1496901924.38,64977,17.69,73966.8,6.51,-33.31,-35.17,0,*76
1496901925.63,64978,17.69,73970.5,6.53,-33.55,-35.53,0,*79
1496901926.86,64979,17.69,73968.8,6.57,-33.21,-35.13,0,*7B
1496901928.09,64980,17.69,73970.0,6.61,-33.15,-35.01,0,*7C
1496901929.32,64981,17.69,73968.5,6.63,-33.31,-35.17,0,*7E
1496901930.55,64982,17.69,73970.0,6.65,-33.21,-35.01,0,*7D
1496901931.8,64983,17.69,73968.5,6.67,-32.75,-34.35,0,*78
1496901933.04,64984,17.69,73968.5,6.69,-32.19,-33.95,0,*76
1496901934.32,64985,17.69,73970.3,6.73,-31.95,-33.73,0,*73
1496901935.6,64986,17.69,73968.8,6.81,-31.73,-33.43,0,*76
1496901936.85,64987,17.69,73968.0,6.83,-32.19,-33.89,0,*7C
1496901938.11,64988,17.69,73970.8,6.85,-33.31,-34.95,0,*74
1496901939.36,64989,17.69,73970.5,6.87,-32.39,-34.01,0,*73
1496901940.63,64990,17.69,73970.5,6.91,-32.75,-34.35,0,*73
1496901941.88,64991,17.69,73970.3,6.93,-32.85,-34.31,0,*7B
1496901943.1,64992,17.69,73968.3,6.95,-32.39,-33.95,0,*70
1496901944.31,64993,17.69,73970.3,6.99,-32.91,-34.41,0,*71
1496901945.53,64994,17.69,73970.3,6.99,-32.91,-34.41,0,*76
1496901946.78,64995,17.69,73974.3,7.03,-33.03,-34.65,0,*79
1496901948.04,64996,17.69,73972.0,7.05,-33.73,-35.41,0,*7C
1496901949.29,64997,17.69,73974.0,7.09,-32.79,-34.31,0,*7C
1496901950.49,64998,17.69,73970.5,7.09,-34.13,-35.71,0,*7C
1496901951.75,64999,17.69,73972.3,7.11,-33.43,-34.83,0,*7A
1496901952.96,65000,17.69,73966.5,7.13,-33.83,-35.29,0,*7D
1496901954.21,65001,17.69,73968.0,7.13,-33.77,-35.41,0,*79
1496901955.49,65002,17.69,73970.8,7.15,-35.23,-36.91,0,*75
1496901956.76,65003,17.69,73970.0,7.15,-35.23,-36.79,0,*72
1496901958.05,65004,17.69,73970.0,7.15,-34.35,-35.83,0,*75
1496901959.28,65005,17.69,73968.8,7.17,-33.49,-35.01,0,*70
1496901960.53,65006,17.69,73966.5,7.17,-32.29,-33.73,0,*77
1496901961.77,65007,17.69,73968.0,7.21,-32.29,-33.73,0,*73
1496901963.0,65008,17.69,73968.5,7.21,-33.31,-34.77,0,*77
1496901964.21,65009,17.69,73968.0,7.29,-33.37,-34.89,0,*79
1496901965.42,65010,17.69,73968.8,7.29,-34.07,-35.59,0,*79
1496901966.67,65011,17.69,73968.0,7.29,-34.65,-36.13,0,*71
1496901967.88,65012,17.69,73968.5,7.29,-34.13,-35.71,0,*74
1496901969.11,65013,17.69,73968.5,7.29,-33.43,-35.01,0,*70
1496901970.33,65014,17.69,73968.8,7.33,-32.75,-34.25,0,*7F
1496901971.57,65015,17.69,73970.5,7.33,-33.37,-34.95,0,*72
1496901972.84,65016,17.69,73968.5,7.35,-33.61,-35.23,0,*78
1496901974.09,65017,17.69,73970.8,7.35,-33.09,-34.71,0,*71
1496901975.36,65018,17.69,73970.8,7.35,-32.75,-34.19,0,*7A
1496901976.59,65019,17.69,73968.5,7.39,-31.79,-33.37,0,*73
1496901977.82,65020,17.69,73966.8,7.41,-31.73,-33.15,0,*7C
1496901979.06,65021,17.69,73968.0,7.43,-32.57,-34.19,0,*71
1496901980.31,65022,17.69,73966.8,7.47,-33.27,-34.77,0,*78
1496901981.53,65023,17.69,73968.5,7.49,-33.03,-34.41,0,*74
1496901982.75,65024,17.69,73970.5,7.49,-32.51,-34.13,0,*72
1496901984.03,65025,17.69,73970.3,7.53,-32.29,-33.73,0,*76
1496901985.28,65026,17.69,73968.5,7.53,-32.75,-34.25,0,*78
1496901986.51,65027,17.69,73966.0,7.53,-33.21,-34.77,0,*7E
1496901987.74,65028,17.69,73970.8,7.55,-33.21,-34.83,0,*7C
1496901988.96,65029,17.69,73968.5,7.57,-33.15,-34.77,0,*73
1496901990.2,65030,17.69,73966.8,7.57,-32.85,-34.25,0,*74
1496901991.42,65031,17.69,73966.0,7.59,-33.21,-34.83,0,*78
1496901992.67,65032,17.69,73970.3,7.59,-32.79,-34.31,0,*7E
1496901993.93,65033,17.69,73968.8,7.61,-33.73,-35.17,0,*7A
1496901995.18,65034,17.69,73968.0,7.61,-33.43,-35.17,0,*7E
1496901996.42,65035,17.69,73968.8,7.61,-33.37,-35.01,0,*7B
1496901997.65,65036,17.69,73970.5,7.61,-33.37,-35.01,0,*78
1496901998.88,65037,17.69,73970.0,7.65,-33.21,-34.77,0,*7A
1496902000.11,65038,17.69,73968.5,7.65,-33.37,-35.13,0,*71
1496902001.34,65039,17.69,73970.0,7.65,-34.07,-35.71,0,*70
1496902002.58,65040,17.69,73970.0,7.65,-34.41,-36.13,0,*7B
1496902003.81,65041,17.69,73968.5,7.65,-34.41,-36.07,0,*7F
1496902005.02,65042,17.69,73966.0,7.65,-33.03,-34.41,0,*7D
1496902006.27,65043,17.69,73964.3,7.67,-32.75,-34.35,0,*7D
1496902007.47,65044,17.69,73968.0,7.71,-32.69,-34.07,0,*71
1496902008.7,65045,17.69,73970.3,7.71,-33.43,-35.01,0,*7E
1496902009.94,65046,17.69,73964.5,7.71,-32.45,-34.01,0,*7B
1496902011.17,65047,17.69,73966.8,7.75,-31.95,-33.67,0,*77
1496902012.41,65048,17.69,73968.3,7.75,-32.29,-33.89,0,*7C
1496902013.6,65049,17.69,73968.5,7.79,-32.35,-33.95,0,*71
1496902014.85,65050,17.69,73964.3,7.77,-31.91,-33.37,0,*72
1496902016.08,65051,17.69,73970.0,7.83,-32.13,-33.67,0,*74
1496902017.31,65052,17.69,73970.5,7.81,-33.37,-34.95,0,*78
1496902018.54,65053,17.69,73966.8,7.83,-33.03,-34.47,0,*73
1496902019.79,65054,17.69,73968.3,7.83,-33.03,-34.53,0,*71
1496902021.07,65055,17.69,73966.8,7.83,-33.61,-35.41,0,*76
1496902022.27,65056,17.69,73968.3,7.85,-33.55,-35.17,0,*77
1496902023.52,65057,17.69,73966.3,7.87,-33.95,-35.53,0,*78
1496902024.73,65058,17.69,73968.0,7.85,-33.37,-34.89,0,*7B
1496902026.02,65059,17.69,73968.5,7.87,-33.73,-35.41,0,*7D
1496902027.27,65060,17.69,73964.8,7.85,-33.89,-35.41,0,*70
1496902028.5,65061,17.69,73966.5,7.87,-32.69,-34.25,0,*7F
1496902029.78,65062,17.69,73968.3,7.87,-32.45,-33.89,0,*73
1496902031.03,65063,17.69,73968.8,7.87,-32.39,-33.89,0,*79
1496902032.26,65064,17.69,73964.5,7.93,-32.29,-33.67,0,*7A
1496902033.49,65065,17.69,73966.5,7.93,-32.19,-33.67,0,*78
1496902034.75,65066,17.69,73968.0,7.97,-31.91,-33.43,0,*7A
1496902035.97,65067,17.69,73966.5,7.97,-32.13,-33.61,0,*72
1496902037.22,65068,17.69,73966.8,7.97,-32.29,-33.89,0,*72
1496902038.46,65069,17.69,73966.0,7.99,-32.63,-34.13,0,*77
1496902039.71,65070,17.69,73966.8,7.99,-32.23,-33.73,0,*7A
1496902040.93,65071,17.69,73968.5,8.01,-32.39,-34.19,0,*75
1496902042.16,65072,17.69,73970.8,8.01,-32.39,-33.73,0,*7D
1496902043.38,65073,17.69,73970.0,8.05,-31.67,-33.31,0,*76
1496902044.61,65074,17.69,73968.0,8.05,-32.69,-34.53,0,*7F
1496902045.84,65075,17.69,73968.5,8.09,-33.83,-35.53,0,*76
1496902047.08,65076,17.69,73968.3,8.07,-33.95,-35.65,0,*79
1496902048.34,65077,17.69,73968.0,8.09,-33.73,-35.53,0,*7B
1496902049.58,65078,17.69,73970.0,8.07,-33.43,-35.17,0,*79
1496902050.78,65079,17.69,73966.3,8.09,-33.37,-35.17,0,*75
1496902052.03,65080,17.69,73970.0,8.07,-32.85,-34.47,0,*71
1496902053.27,65081,17.69,73968.8,8.07,-32.45,-34.07,0,*78
1496902054.55,65082,17.69,73966.0,8.11,-31.73,-33.31,0,*78
1496902055.78,65083,17.69,73968.0,8.15,-31.11,-32.69,0,*75
1496902057.01,65084,17.69,73968.3,8.15,-31.29,-32.75,0,*74
1496902058.26,65085,17.69,73970.3,8.17,-30.73,-32.35,0,*7D
1496902059.51,65086,17.69,73968.0,8.19,-30.77,-32.29,0,*79
1496902060.72,65087,17.69,73966.3,8.23,-30.89,-32.57,0,*79
1496902061.94,65088,17.69,73968.8,8.23,-31.01,-32.63,0,*70
1496902063.16,65089,17.69,73968.8,8.27,-31.29,-32.97,0,*74
1496902064.41,65090,17.69,73970.3,8.27,-31.57,-33.27,0,*7F
1496902065.66,65091,17.69,73968.5,8.27,-31.85,-33.77,0,*74
1496902066.85,65092,17.69,73968.5,8.31,-32.39,-34.13,0,*71
1496902068.1,65093,17.69,73970.3,8.29,-32.01,-33.61,0,*70
1496902069.29,65094,17.69,73968.3,8.31,-31.01,-32.57,0,*79
1496902070.49,65095,17.69,73966.8,8.35,-30.67,-32.39,0,*75
1496902071.72,65096,17.69,73970.5,8.35,-30.95,-32.69,0,*7E
1496902072.94,65097,17.69,73970.5,8.39,-30.89,-32.69,0,*7E
1496902074.17,65098,17.69,73968.5,8.41,-31.29,-33.03,0,*78
1496902075.42,65099,17.69,73974.8,8.47,-31.51,-33.15,0,*77
1496902076.65,65100,17.69,73970.3,8.45,-31.33,-33.09,0,*7D
1496902077.93,65101,17.69,73968.8,8.47,-31.73,-33.49,0,*7E
1496902079.16,65102,17.69,73970.5,8.49,-31.61,-33.37,0,*79
1496902080.42,65103,17.69,73968.5,8.51,-30.89,-32.69,0,*7C
1496902081.67,65104,17.69,73970.5,8.51,-30.89,-32.51,0,*70
1496902082.91,65105,17.69,73970.5,8.53,-31.23,-32.69,0,*79
1496902084.19,65106,17.69,73970.3,8.55,-30.95,-32.63,0,*7A
1496902085.39,65107,17.69,73972.0,8.57,-30.83,-32.57,0,*79
1496902086.64,65108,17.69,73972.3,8.59,-30.95,-32.69,0,*72
1496902087.86,65109,17.69,73970.0,8.65,-30.55,-32.23,0,*7E
1496902089.1,65110,17.69,73970.8,8.65,-30.83,-32.45,0,*7D
1496902090.35,65111,17.69,73972.3,8.67,-30.83,-32.45,0,*7E
1496902091.56,65112,17.69,73972.0,8.69,-31.33,-32.91,0,*70
1496902092.81,65113,17.69,73974.0,8.71,-30.95,-32.51,0,*79
1496902094.03,65114,17.69,73972.5,8.73,-31.39,-33.15,0,*7A
1496902095.29,65115,17.69,73972.0,8.73,-31.61,-33.31,0,*70
1496902096.54,65116,17.69,73970.3,8.73,-32.07,-33.73,0,*76
1496902097.81,65117,17.69,73972.8,8.75,-32.29,-34.01,0,*7F
1496902099.03,65118,17.69,73970.3,8.75,-33.37,-35.17,0,*78
1496902100.28,65119,17.69,73972.0,8.75,-32.39,-34.19,0,*79
1496902101.53,65120,17.69,73970.8,8.77,-31.57,-33.15,0,*71
1496902102.81,65121,17.69,73970.3,8.77,-31.39,-33.31,0,*7E